カタログに戻る

COSMOS 2251 DEB

運用中LEO
NORAD 34728·DEBRIS·🇷🇺 Russia

打ち上げ Jun 16, 1993 から Plesetsk Cosmodrome

Loading…

次のパス (今後24時間)

TLE

最新Source: Space-Track

元期: Sep 12, 2026, 21:59 UTC

1 34728U 93036YW  26255.91664816  .00002217  00000-0  34731-3 0  9999
2 34728  74.0132  77.8587 0041661 167.7593 192.4602 14.72781210928344

AllMySatでCOSMOS 2251 DEBをリアルタイム追跡

Download on the App Store